Вернуться в каталог

TERRA SAR X

АктивенНаукаSSO
NORAD 31698·PAYLOAD·🇩🇪 Germany

Запущен Jun 15, 2007 с Baikonur Cosmodrome

Loading…

Ближайшие Пролёты (ближайшие 24 часа)

TLE

СвежийSource: CelesTrak SupGP

Эпоха: Sep 14, 2026, 00:01 UTC

1 31698C 07026A   26257.00118056  .00001394  00000+0  66525-4 0  2576
2 31698  97.4469 263.4493 0001616  94.3340   9.5398 15.19147389    19

Отслеживайте TERRA SAR X в реальном времени с AllMySat

Download on the App Store